SCP
0 0 0 0 0 0 0 0 0 0 0 0 0 0 0 0 0 0 0 -0 -0 -0 -0 0 -0 -0 -0 -0 -0 -0 -0 -0 -0 -0 -0 -0 -0 -0 -0 -0 -0 -0 -0 -0 -0 -0 -0 -0 -0
0 0 0 0 0 0 0 0 0 0 0 0 0 0 0 0 0 0 0 0 0 -0 0 0 -0 -0 -0 -0 -0 -0 -0 -0 -0 -0 -0 -0 -0 -0 -0 -0 -0 -0 -0 -0 -0 -0 -0 -0 -0
0 0 0 0 0 0 0 0 0 0 0 0 0 0 0 0 0 0 0 0 0 0 0 0 0 -0 -0 -0 -0 -0 -0 -0 -0 -0 -0 -0 -0 -0 -0 -0 -0 -0 -0 0 0 0 0 0 -0
0 0 0 0 0 0 0 0 0 0 0 0 0 0 0 0 0 0 0 0 0 0 0 0 0 0 0 -0 -0 -0 -0 -0 -0 -0 -0 -0 -0 -0 -0 -0 0 0 0 0 0 0 0 0 0
0 0 0 0 0 0 0 0 0 0 0 0 0 0 0 0 0 0 0 0 0 0 0 0 0 0 0 0 0 -0 -0 0 0 0 0 0 0 0 0 0 0 0 0 0 0 0 0 0 0
0 0 0 0 0 0 0 0 0 0 0 0 0 0 0 0 0 0 0 0 0 0 0 0 0 0 0 0 0 0 0 0 0 0 0 0 0 0 0 0 0 0 -0 -0 -0 -0 0 0 0
0 0 0 0 0 0 0 0 0 0 0 0 0 0 0 0 0 0 0 0 0 0 0 0 0 0 0 0 0 0 0 0 0 0 0 0 0 0 0 0 0 0 0 0 0 0 0 0 0
0 0 0 0 0 0 0 0 0 0 0 0 0 0 0 0 0 0 0 0 0 0 0 0 0 0 0 0 0 0 0 0 0 0 0 0 0 0 0 0 0 0 0 0 0 0 0 0 0
0 0 0 0 0 0 0 0 0 0 0 0 0 0 0 0 0 0 0 0 0 0 0 0 0 0 0 0 0 0 0 0 0 0 0 0 0 0 0 0 0 0 0 0 0 0 0 0 0
0 0 0 0 0 0 0 0 0 0 0 0 0 0 0 -0 -0 0 0 0 0 0 0 0 0 0 0 0 0 0 0 0 0 0 0 0 0 0 0 0 0 0 0 0 0 0 0 0 0
0 0 0 0 0 0 0 0 0 0 0 0 0 0 0 0 0 0 0 0 0 0 0 0 0 0 0 0 0 0 0 0 0 0 0 0 0 0 0 0 0 0 0 0 0 0 0 0 0
0 0 0 0 0 0 0 0 0 0 0 0 0 0 0 0 0 -0 0 0 0 0 0 0 0 0 0 0 0 0 0 0 0 0 0 0 0 0 0 0 0 0 0 0 0 0 0 0 0
0 0 0 0 0 0 0 0 0 0 0 0 0 0 0 0 0 0 0 0 0 0 0 0 0 0 0 0 0 0 0 0 0 0 0 0 0 0 0 0 0 0 0 0 0 0 0 0 0
0 0 0 0 0 0 0 0 0 0 0 0 0 0 0 0 0 0 0 0 0 0 0 0 0 0 0 0 0 0 0 0 0 0 0 0 0 0 0 0 0 0 0 0 0 0 0 0 0
0 0 0 0 0 0 0 0 0 0 0 0 0 0 0 0 0 0 0 0 0 0 0 0 0 0 0 0 0 0 0 0 0 0 0 0 0 0 0 0 0 0 0 0 0 0 0 0 0
0 0 0 0 0 0 0 0 0 0 0 0 0 0 0 0 0 0 0 0 0 0 0 0 0 0 0 0 0 0 0 0 0 0 0 0 0 0 0 0 0 0 0 0 0 0 0 0 0
0 0 0 0 0 0 0 0 0 0 0 0 0 0 0 0 0 0 0 0 0 0 0 0 0 0 0 0 0 0 0 0 0 0 0 0 0 0 0 0 0 0 0 0 0 0 0 0 -0
0 0 0 0 0 0 0 0 0 0 0 0 0 0 0 0 0 0 0 0 0 0 0 0 0 0 0 0 0 0 0 0 0 0 0 0 0 0 0 0 0 0 0 0 0 0 0 0 -0
0 0 0 0 0 0 0 0 0 0 0 0 0 0 0 0 0 0 0 0 0 0 0 0 0 0 0 0 0 0 0 0 0 0 0 0 0 0 0 0 0 0 0 0 0 0 0 0 0
0 0 0 0 0 0 0 0 0 0 0 0 0 0 0 0 0 0 0 0 0 0 0 0 0 0 0 0 0 0 0 0 0 0 0 0 0 0 0 0 0 0 0 0 0 0 0 0 0
0 0 0 0 0 0 0 0 0 0 0 0 0 0 0 0 0 0 0 0 0 0 0 0 0 0 0 0 0 0 0 0 0 0 0 0 0 0 0 0 0 0 0 0 0 0 0 0 0
0 0 0 0 0 0 0 -0 0 0 0 0 0 0 0 0 0 0 0 0 0 0 0 0 0 0 0 0 0 0 0 0 0 0 0 0 0 0 0 0 0 0 0 0 0 0 0 0 0
0 0 0 0 0 0 0 0 0 0 0 0 0 0 0 0 0 0 0 0 0 0 0 0 0 0 0 0 0 0 0 0 0 0 0 0 0 0 0 0 0 0 0 0 0 0 0 0 0
0 0 0 0 0 0 0 0 0 0 0 0 0 0 0 0 0 0 0 0 0 0 0 0 0 0 0 0 0 0 0 0 0 0 0 0 0 0 0 0 0 0 0 0 0 0 0 0 0
0 0 0 0 0 0 0 0 0 0 0 0 0 0 0 0 0 0 0 0 0 0 0 0 0 0 0 0 0 0 0 0 0 0 0 0 0 0 0 0 0 0 0 0 0 0 0 0 0
0 0 0 0 0 0 0 0 0 0 0 0 0 0 0 0 0 0 0 0 0 0 0 0 0 0 0 0 0 0 0 0 0 0 0 0 0 0 0 0 0 0 0 0 0 0 0 0 0
0 0 0 0 0 0 0 0 0 0 0 0 0 0 0 0 0 0 0 0 0 0 0 0 0 0 0 0 0 0 0 0 0 0 0 0 0 0 0 0 0 0 0 0 0 0 0 0 0
0 0 0 0 0 0 0 0 0 0 0 0 0 0 0 0 0 0 0 0 0 0 0 0 0 0 0 0 0 0 0 0 0 0 0 0 0 0 0 0 0 0 0 0 0 0 0 0 0
0 0 0 0 0 0 0 0 0 0 0 0 0 0 0 0 0 0 0 0 0 0 0 0 0 0 0 0 0 0 0 0 0 0 0 0 0 0 0 0 0 0 0 0 0 0 0 0 0
0 0 0 0 0 0 0 0 0 0 0 0 0 -0 0 0 0 0 0 0 0 0 0 0 0 0 0 0 0 0 0 0 0 0 0 0 0 0 0 0 0 0 0 0 0 0 0 0 0
Wind_Speed_500mb
7 5 2 5 7 9 7 10 7 6 5 6 17 9 15 9 4 7 29 31 28 29 24 20 19 20 17 12 16 12 8 4 3 4 5 8 11 12 12 11 12 13 14 15 16 19 18 17 16
6 6 4 1 7 3 10 6 9 7 11 14 15 8 10 3 4 13 33 38 35 32 24 22 19 16 14 12 12 12 11 10 12 12 11 12 13 14 15 16 15 16 18 19 21 22 21 22 23
4 3 1 6 5 8 7 8 14 11 16 10 7 4 2 11 10 11 20 36 38 30 26 23 21 18 15 14 13 11 12 15 12 12 12 13 13 13 14 14 14 15 16 18 21 23 23 22 22
7 4 2 6 14 16 7 10 16 21 10 14 10 6 8 17 8 14 23 33 39 34 30 27 24 20 19 18 16 15 16 12 10 8 7 7 9 10 11 12 13 14 16 17 18 19 20 20 21
3 2 2 5 13 10 2 34 30 11 16 18 18 8 7 23 27 18 23 37 41 39 35 30 25 23 22 20 18 16 13 11 10 8 8 9 9 10 10 9 8 7 8 10 11 12 13 15 17
3 1 4 7 10 7 8 27 25 17 15 16 14 10 9 20 30 28 29 37 40 38 35 32 28 23 20 18 16 15 13 12 10 9 9 7 5 3 2 2 4 6 8 11 12 12 12 12 12
3 6 9 10 13 9 10 22 20 22 23 25 13 9 8 30 29 31 34 38 41 41 38 35 31 28 26 23 19 17 16 14 12 9 7 6 5 5 4 2 3 4 7 10 12 14 16 16 15
5 5 7 9 8 9 10 11 9 20 20 18 31 14 13 33 34 35 39 42 43 43 42 39 35 33 31 27 23 21 18 16 13 11 9 7 7 7 5 3 3 7 10 13 16 18 20 22 22
5 4 7 10 6 6 17 9 10 9 9 18 29 21 19 18 36 40 46 48 49 49 49 46 44 40 35 32 29 25 22 19 16 13 11 11 9 6 2 3 7 10 14 18 21 23 25 26 26
7 5 12 9 6 3 9 13 18 10 15 18 28 38 38 32 39 46 52 53 53 52 53 53 51 46 40 37 32 29 26 23 21 18 17 15 13 9 7 7 9 13 18 22 25 27 29 29 28
11 12 9 8 11 9 5 8 16 19 14 34 48 58 49 48 49 53 57 57 53 52 55 56 55 51 47 43 39 35 31 28 26 23 21 18 17 16 15 14 15 17 19 21 23 25 28 31 31
10 26 39 19 13 9 6 13 12 40 48 21 32 45 57 61 61 60 63 63 61 60 59 58 58 57 54 50 46 41 38 34 31 29 27 25 24 21 19 18 18 19 21 23 24 27 29 29 27
15 12 33 29 30 28 24 36 21 51 50 54 55 47 46 67 69 65 62 60 62 66 64 64 63 64 61 57 53 48 44 40 38 35 33 32 30 27 24 23 22 23 23 24 25 26 28 28 26
8 13 28 27 33 31 19 15 14 47 43 55 62 61 66 67 68 66 71 72 71 69 70 67 67 66 65 63 57 52 49 47 45 42 40 36 33 30 27 26 25 25 25 27 27 29 32 35 35
12 15 18 24 39 16 23 20 27 84 54 41 48 60 74 73 70 78 76 79 75 75 71 71 71 67 66 65 61 58 55 54 51 48 45 43 39 36 32 31 29 28 26 27 29 31 35 38 39
5 3 8 5 16 13 26 35 21 36 44 63 68 59 60 73 80 77 76 76 79 77 77 73 74 71 68 66 67 63 61 58 57 53 51 48 46 41 37 35 33 30 28 29 32 34 36 40 42
8 13 17 20 29 15 14 23 14 26 47 60 63 67 67 69 73 78 81 77 80 78 76 80 81 78 72 67 71 68 65 63 62 59 58 55 52 45 41 39 35 31 30 30 33 35 38 41 43
17 13 15 19 7 7 13 31 35 43 21 33 46 52 66 75 91 85 78 85 82 80 79 82 83 80 74 69 73 72 70 69 69 66 64 60 55 49 46 43 40 36 33 32 34 35 36 41 47
9 13 14 23 16 15 29 34 41 53 41 55 76 83 88 91 99 92 85 82 83 85 84 89 88 85 79 79 83 84 84 79 78 71 68 63 58 53 50 47 42 37 33 34 36 38 39 40 44
23 37 37 25 29 20 21 36 30 21 40 52 65 78 91 103 103 91 73 76 87 92 91 90 88 84 83 83 83 85 84 79 75 70 70 66 62 57 54 51 45 39 36 38 40 40 39 39 42
32 22 36 30 18 10 17 24 24 24 46 59 70 85 97 104 92 80 63 70 85 97 95 92 89 83 85 83 83 86 79 75 78 82 80 75 68 64 60 56 49 42 40 41 41 40 38 36 39
39 20 23 17 6 27 12 45 19 16 28 33 61 78 91 97 84 75 62 71 83 96 93 89 82 80 82 84 86 89 92 92 94 90 83 77 73 69 64 59 53 47 46 43 41 41 39 36 37
38 9 18 9 12 11 13 15 9 21 22 23 31 69 90 90 82 65 59 65 74 93 94 86 79 81 83 85 86 89 94 93 89 84 80 78 74 71 67 62 57 53 49 44 41 41 41 42 40
3 3 1 4 3 24 19 24 12 12 24 15 35 63 87 81 74 43 51 61 72 90 90 85 83 83 84 85 86 88 91 94 91 88 83 81 77 74 71 67 61 57 53 46 42 41 43 43 42
8 9 8 7 2 22 21 23 46 18 16 29 34 62 73 73 47 38 46 65 69 85 88 86 84 87 88 89 87 85 85 90 88 87 86 86 83 81 77 69 65 60 52 46 44 44 45 45 44
20 27 13 16 16 34 8 16 12 30 36 53 69 70 70 51 33 43 48 53 59 72 83 86 88 87 91 94 91 86 86 86 84 86 89 92 87 83 73 68 66 61 55 51 48 46 46 46 45
6 12 37 5 4 5 19 26 21 10 18 20 45 57 39 44 48 48 52 49 48 62 76 83 83 87 91 96 96 95 91 88 84 81 85 89 85 80 73 70 67 61 56 52 49 48 49 48 46
9 2 3 6 8 15 19 21 33 13 36 36 18 26 55 50 50 46 47 45 51 59 62 73 80 82 88 94 100 102 95 91 88 85 84 87 82 81 79 76 69 62 58 54 53 52 51 50 47
2 8 10 6 7 30 37 32 12 14 18 21 22 39 45 45 44 46 44 43 45 51 58 67 77 80 87 92 97 103 104 98 97 92 85 85 83 86 83 77 69 65 61 57 57 54 52 49 48
14 33 35 22 25 9 12 30 33 21 12 14 11 26 39 39 35 31 35 41 41 44 58 63 72 81 82 88 98 103 107 101 99 96 91 87 82 83 81 76 71 67 61 59 57 54 51 48 48
Wind_Direction_500mb
195 180 140 51 37 67 266 261 150 82 65 65 75 79 126 81 140 194 166 193 196 190 187 191 183 190 197 193 178 182 186 201 237 284 277 303 310 315 312 318 315 311 308 307 301 305 310 308 309
186 180 79 358 94 30 274 213 133 160 128 109 94 61 71 97 156 164 166 195 205 183 184 185 187 191 190 191 191 196 205 224 242 259 280 277 278 286 292 294 290 290 293 295 297 298 306 312 312
161 166 56 108 168 195 233 187 148 117 133 133 106 108 130 170 201 191 185 194 201 186 184 187 194 192 197 203 209 208 215 230 248 261 269 274 278 279 281 286 290 291 292 294 297 303 302 299 294
163 147 255 96 247 265 238 152 145 129 119 153 151 149 184 195 205 185 198 191 195 190 193 198 199 193 191 190 191 194 206 212 225 227 242 261 271 279 285 290 295 301 302 301 303 301 303 303 299
120 192 54 244 261 267 250 161 156 143 161 191 176 208 209 204 220 219 199 199 200 195 201 206 203 197 190 184 181 182 187 192 204 212 232 247 261 276 291 304 315 321 327 333 340 339 332 326 319
337 283 36 245 245 266 193 156 155 153 184 188 190 155 218 224 221 220 211 203 205 205 207 210 210 207 203 204 196 192 196 203 212 219 225 235 241 248 279 333 4 14 14 8 4 358 354 352 346
157 99 227 251 257 284 214 162 161 179 171 186 188 171 221 213 212 217 211 208 212 209 212 213 211 210 213 211 204 205 201 204 211 214 209 197 187 181 166 127 75 42 24 9 359 348 343 339 341
259 105 278 245 243 251 165 139 189 200 217 214 196 207 218 222 209 208 209 215 220 218 218 219 219 218 218 215 210 205 204 205 208 211 214 212 187 173 165 135 36 10 360 351 345 340 336 333 331
249 48 254 258 231 205 164 159 187 229 213 197 203 233 227 217 206 206 209 214 221 222 222 220 220 220 221 219 215 211 208 209 215 220 220 213 206 205 221 331 348 349 345 340 334 327 323 320 318
170 162 237 227 309 320 211 192 191 203 224 225 224 234 240 231 217 216 218 222 225 226 227 223 224 223 223 224 221 216 213 214 216 219 221 225 232 237 254 281 306 317 323 326 331 332 331 327 322
201 216 221 291 326 328 289 253 224 199 240 225 227 233 235 235 232 230 231 237 239 233 230 229 226 227 225 226 224 220 219 219 222 227 235 237 236 236 246 269 287 301 310 315 321 326 326 325 322
226 242 256 280 267 270 256 273 249 229 239 259 249 249 243 236 238 239 239 238 236 234 235 233 229 229 226 224 225 224 224 225 227 228 232 234 239 243 253 266 277 287 293 301 312 324 331 328 322
215 248 258 278 261 255 252 258 255 265 255 251 249 256 245 241 246 246 246 243 239 237 236 234 230 229 226 226 224 224 225 225 226 229 231 233 236 243 252 263 275 279 287 299 310 319 323 323 317
249 259 270 275 266 250 212 259 239 267 271 257 243 246 249 248 249 249 244 243 240 239 238 235 233 230 227 226 225 225 225 227 228 229 231 234 239 245 254 264 270 274 282 293 306 315 322 325 324
281 306 308 246 250 225 206 284 229 267 253 256 247 244 244 247 250 251 254 251 246 242 239 236 235 232 229 226 225 225 224 227 229 229 231 233 237 243 251 260 261 268 280 293 305 315 322 325 324
253 222 285 229 183 193 151 266 229 258 246 242 246 244 243 245 250 255 256 253 248 242 238 235 235 234 232 227 226 225 225 228 231 231 233 236 238 241 248 252 256 265 278 289 298 305 316 324 324
240 240 218 300 186 150 175 251 264 258 238 245 244 243 243 249 249 252 254 254 251 244 238 234 234 234 233 229 227 226 228 230 233 233 234 234 237 240 244 248 253 260 270 280 288 301 313 322 323
218 224 249 232 197 148 196 247 266 257 256 243 243 245 240 248 261 263 259 255 246 243 240 235 234 232 231 230 227 227 228 230 232 232 234 235 236 237 240 245 249 255 265 276 286 297 310 317 321
223 260 243 267 253 180 227 234 249 260 250 250 257 260 261 264 270 268 264 255 245 237 234 232 230 229 227 226 224 224 226 227 231 232 235 235 237 238 241 245 249 255 265 276 284 293 301 311 318
244 258 267 278 263 201 247 244 251 255 254 243 240 249 254 263 267 269 262 254 237 234 231 230 231 231 230 230 229 228 231 229 235 238 238 238 238 238 240 243 247 254 265 274 279 288 299 310 320
245 245 260 266 297 248 292 267 238 248 249 252 254 256 262 263 262 263 252 245 235 226 228 230 232 232 231 231 228 228 229 231 232 233 235 236 237 237 239 242 246 252 261 269 278 286 294 305 309
257 228 244 249 259 271 149 292 229 238 248 248 252 254 257 256 260 261 249 238 232 230 228 229 232 233 231 230 229 228 230 228 231 234 236 237 237 238 240 242 244 248 255 265 273 281 290 296 299
260 216 247 220 231 311 179 272 211 197 241 248 245 247 252 262 266 261 236 236 233 226 226 229 232 231 229 230 230 230 232 234 239 239 239 238 238 239 239 241 244 247 253 260 269 280 287 291 293
185 128 258 15 71 264 192 208 252 195 216 239 246 251 259 265 262 244 242 228 225 222 222 226 229 229 228 230 232 233 234 236 236 237 237 237 236 235 236 239 241 245 250 258 267 275 280 284 288
170 91 302 316 325 253 183 216 251 295 266 224 230 240 245 245 248 222 222 210 219 220 221 225 228 227 227 228 231 233 235 238 239 240 240 238 236 235 236 237 240 244 249 256 263 270 275 279 283
202 209 188 205 253 280 120 244 254 216 236 239 241 241 232 237 214 214 224 219 222 222 223 224 225 226 228 229 230 233 235 239 241 240 242 242 241 241 239 239 239 241 245 250 258 267 272 275 277
183 171 229 312 100 12 266 270 293 267 260 253 238 233 232 223 214 219 220 223 226 226 226 224 226 228 231 232 232 233 234 237 240 241 243 245 243 241 237 237 238 241 244 251 258 264 267 271 276
179 304 76 229 211 247 259 267 266 283 276 261 262 227 237 229 212 217 222 226 231 232 231 230 231 235 237 237 235 236 237 238 240 241 244 246 243 238 235 235 236 239 245 251 258 262 266 270 274
151 253 230 285 203 253 263 270 224 219 265 274 250 245 237 219 223 226 232 235 236 237 235 234 236 240 241 241 240 239 238 239 240 243 245 246 243 239 236 235 236 239 243 250 255 260 263 269 276
260 236 230 239 262 228 257 260 278 259 202 242 263 266 248 236 225 235 247 238 235 240 240 240 244 246 250 247 242 240 239 240 242 243 245 245 241 239 239 238 236 239 243 249 255 261 264 270 278
Wind_Speed_850mb
7 5 2 5 7 9 7 10 7 6 5 6 17 9 15 9 4 7 29 31 28 29 24 20 19 20 17 12 16 12 8 4 3 4 5 8 11 12 12 11 12 13 14 15 16 19 18 17 16
6 6 4 1 7 3 10 6 9 7 11 14 15 8 10 3 4 13 33 38 35 32 24 22 19 16 14 12 12 12 11 10 12 12 11 12 13 14 15 16 15 16 18 19 21 22 21 22 23
4 3 1 6 5 8 7 8 14 11 16 10 7 4 2 11 10 11 20 36 38 30 26 23 21 18 15 14 13 11 12 15 12 12 12 13 13 13 14 14 14 15 16 18 21 23 23 22 22
7 4 2 6 14 16 7 10 16 21 10 14 10 6 8 17 8 14 23 33 39 34 30 27 24 20 19 18 16 15 16 12 10 8 7 7 9 10 11 12 13 14 16 17 18 19 20 20 21
3 2 2 5 13 10 2 34 30 11 16 18 18 8 7 23 27 18 23 37 41 39 35 30 25 23 22 20 18 16 13 11 10 8 8 9 9 10 10 9 8 7 8 10 11 12 13 15 17
3 1 4 7 10 7 8 27 25 17 15 16 14 10 9 20 30 28 29 37 40 38 35 32 28 23 20 18 16 15 13 12 10 9 9 7 5 3 2 2 4 6 8 11 12 12 12 12 12
3 6 9 10 13 9 10 22 20 22 23 25 13 9 8 30 29 31 34 38 41 41 38 35 31 28 26 23 19 17 16 14 12 9 7 6 5 5 4 2 3 4 7 10 12 14 16 16 15
5 5 7 9 8 9 10 11 9 20 20 18 31 14 13 33 34 35 39 42 43 43 42 39 35 33 31 27 23 21 18 16 13 11 9 7 7 7 5 3 3 7 10 13 16 18 20 22 22
5 4 7 10 6 6 17 9 10 9 9 18 29 21 19 18 36 40 46 48 49 49 49 46 44 40 35 32 29 25 22 19 16 13 11 11 9 6 2 3 7 10 14 18 21 23 25 26 26
7 5 12 9 6 3 9 13 18 10 15 18 28 38 38 32 39 46 52 53 53 52 53 53 51 46 40 37 32 29 26 23 21 18 17 15 13 9 7 7 9 13 18 22 25 27 29 29 28
11 12 9 8 11 9 5 8 16 19 14 34 48 58 49 48 49 53 57 57 53 52 55 56 55 51 47 43 39 35 31 28 26 23 21 18 17 16 15 14 15 17 19 21 23 25 28 31 31
10 26 39 19 13 9 6 13 12 40 48 21 32 45 57 61 61 60 63 63 61 60 59 58 58 57 54 50 46 41 38 34 31 29 27 25 24 21 19 18 18 19 21 23 24 27 29 29 27
15 12 33 29 30 28 24 36 21 51 50 54 55 47 46 67 69 65 62 60 62 66 64 64 63 64 61 57 53 48 44 40 38 35 33 32 30 27 24 23 22 23 23 24 25 26 28 28 26
8 13 28 27 33 31 19 15 14 47 43 55 62 61 66 67 68 66 71 72 71 69 70 67 67 66 65 63 57 52 49 47 45 42 40 36 33 30 27 26 25 25 25 27 27 29 32 35 35
12 15 18 24 39 16 23 20 27 84 54 41 48 60 74 73 70 78 76 79 75 75 71 71 71 67 66 65 61 58 55 54 51 48 45 43 39 36 32 31 29 28 26 27 29 31 35 38 39
5 3 8 5 16 13 26 35 21 36 44 63 68 59 60 73 80 77 76 76 79 77 77 73 74 71 68 66 67 63 61 58 57 53 51 48 46 41 37 35 33 30 28 29 32 34 36 40 42
8 13 17 20 29 15 14 23 14 26 47 60 63 67 67 69 73 78 81 77 80 78 76 80 81 78 72 67 71 68 65 63 62 59 58 55 52 45 41 39 35 31 30 30 33 35 38 41 43
17 13 15 19 7 7 13 31 35 43 21 33 46 52 66 75 91 85 78 85 82 80 79 82 83 80 74 69 73 72 70 69 69 66 64 60 55 49 46 43 40 36 33 32 34 35 36 41 47
9 13 14 23 16 15 29 34 41 53 41 55 76 83 88 91 99 92 85 82 83 85 84 89 88 85 79 79 83 84 84 79 78 71 68 63 58 53 50 47 42 37 33 34 36 38 39 40 44
23 37 37 25 29 20 21 36 30 21 40 52 65 78 91 103 103 91 73 76 87 92 91 90 88 84 83 83 83 85 84 79 75 70 70 66 62 57 54 51 45 39 36 38 40 40 39 39 42
32 22 36 30 18 10 17 24 24 24 46 59 70 85 97 104 92 80 63 70 85 97 95 92 89 83 85 83 83 86 79 75 78 82 80 75 68 64 60 56 49 42 40 41 41 40 38 36 39
39 20 23 17 6 27 12 45 19 16 28 33 61 78 91 97 84 75 62 71 83 96 93 89 82 80 82 84 86 89 92 92 94 90 83 77 73 69 64 59 53 47 46 43 41 41 39 36 37
38 9 18 9 12 11 13 15 9 21 22 23 31 69 90 90 82 65 59 65 74 93 94 86 79 81 83 85 86 89 94 93 89 84 80 78 74 71 67 62 57 53 49 44 41 41 41 42 40
3 3 1 4 3 24 19 24 12 12 24 15 35 63 87 81 74 43 51 61 72 90 90 85 83 83 84 85 86 88 91 94 91 88 83 81 77 74 71 67 61 57 53 46 42 41 43 43 42
8 9 8 7 2 22 21 23 46 18 16 29 34 62 73 73 47 38 46 65 69 85 88 86 84 87 88 89 87 85 85 90 88 87 86 86 83 81 77 69 65 60 52 46 44 44 45 45 44
20 27 13 16 16 34 8 16 12 30 36 53 69 70 70 51 33 43 48 53 59 72 83 86 88 87 91 94 91 86 86 86 84 86 89 92 87 83 73 68 66 61 55 51 48 46 46 46 45
6 12 37 5 4 5 19 26 21 10 18 20 45 57 39 44 48 48 52 49 48 62 76 83 83 87 91 96 96 95 91 88 84 81 85 89 85 80 73 70 67 61 56 52 49 48 49 48 46
9 2 3 6 8 15 19 21 33 13 36 36 18 26 55 50 50 46 47 45 51 59 62 73 80 82 88 94 100 102 95 91 88 85 84 87 82 81 79 76 69 62 58 54 53 52 51 50 47
2 8 10 6 7 30 37 32 12 14 18 21 22 39 45 45 44 46 44 43 45 51 58 67 77 80 87 92 97 103 104 98 97 92 85 85 83 86 83 77 69 65 61 57 57 54 52 49 48
14 33 35 22 25 9 12 30 33 21 12 14 11 26 39 39 35 31 35 41 41 44 58 63 72 81 82 88 98 103 107 101 99 96 91 87 82 83 81 76 71 67 61 59 57 54 51 48 48
Wind_Direction_850mb
195 180 140 51 37 67 266 261 150 82 65 65 75 79 126 81 140 194 166 193 196 190 187 191 183 190 197 193 178 182 186 201 237 284 277 303 310 315 312 318 315 311 308 307 301 305 310 308 309
186 180 79 358 94 30 274 213 133 160 128 109 94 61 71 97 156 164 166 195 205 183 184 185 187 191 190 191 191 196 205 224 242 259 280 277 278 286 292 294 290 290 293 295 297 298 306 312 312
161 166 56 108 168 195 233 187 148 117 133 133 106 108 130 170 201 191 185 194 201 186 184 187 194 192 197 203 209 208 215 230 248 261 269 274 278 279 281 286 290 291 292 294 297 303 302 299 294
163 147 255 96 247 265 238 152 145 129 119 153 151 149 184 195 205 185 198 191 195 190 193 198 199 193 191 190 191 194 206 212 225 227 242 261 271 279 285 290 295 301 302 301 303 301 303 303 299
120 192 54 244 261 267 250 161 156 143 161 191 176 208 209 204 220 219 199 199 200 195 201 206 203 197 190 184 181 182 187 192 204 212 232 247 261 276 291 304 315 321 327 333 340 339 332 326 319
337 283 36 245 245 266 193 156 155 153 184 188 190 155 218 224 221 220 211 203 205 205 207 210 210 207 203 204 196 192 196 203 212 219 225 235 241 248 279 333 4 14 14 8 4 358 354 352 346
157 99 227 251 257 284 214 162 161 179 171 186 188 171 221 213 212 217 211 208 212 209 212 213 211 210 213 211 204 205 201 204 211 214 209 197 187 181 166 127 75 42 24 9 359 348 343 339 341
259 105 278 245 243 251 165 139 189 200 217 214 196 207 218 222 209 208 209 215 220 218 218 219 219 218 218 215 210 205 204 205 208 211 214 212 187 173 165 135 36 10 360 351 345 340 336 333 331
249 48 254 258 231 205 164 159 187 229 213 197 203 233 227 217 206 206 209 214 221 222 222 220 220 220 221 219 215 211 208 209 215 220 220 213 206 205 221 331 348 349 345 340 334 327 323 320 318
170 162 237 227 309 320 211 192 191 203 224 225 224 234 240 231 217 216 218 222 225 226 227 223 224 223 223 224 221 216 213 214 216 219 221 225 232 237 254 281 306 317 323 326 331 332 331 327 322
201 216 221 291 326 328 289 253 224 199 240 225 227 233 235 235 232 230 231 237 239 233 230 229 226 227 225 226 224 220 219 219 222 227 235 237 236 236 246 269 287 301 310 315 321 326 326 325 322
226 242 256 280 267 270 256 273 249 229 239 259 249 249 243 236 238 239 239 238 236 234 235 233 229 229 226 224 225 224 224 225 227 228 232 234 239 243 253 266 277 287 293 301 312 324 331 328 322
215 248 258 278 261 255 252 258 255 265 255 251 249 256 245 241 246 246 246 243 239 237 236 234 230 229 226 226 224 224 225 225 226 229 231 233 236 243 252 263 275 279 287 299 310 319 323 323 317
249 259 270 275 266 250 212 259 239 267 271 257 243 246 249 248 249 249 244 243 240 239 238 235 233 230 227 226 225 225 225 227 228 229 231 234 239 245 254 264 270 274 282 293 306 315 322 325 324
281 306 308 246 250 225 206 284 229 267 253 256 247 244 244 247 250 251 254 251 246 242 239 236 235 232 229 226 225 225 224 227 229 229 231 233 237 243 251 260 261 268 280 293 305 315 322 325 324
253 222 285 229 183 193 151 266 229 258 246 242 246 244 243 245 250 255 256 253 248 242 238 235 235 234 232 227 226 225 225 228 231 231 233 236 238 241 248 252 256 265 278 289 298 305 316 324 324
240 240 218 300 186 150 175 251 264 258 238 245 244 243 243 249 249 252 254 254 251 244 238 234 234 234 233 229 227 226 228 230 233 233 234 234 237 240 244 248 253 260 270 280 288 301 313 322 323
218 224 249 232 197 148 196 247 266 257 256 243 243 245 240 248 261 263 259 255 246 243 240 235 234 232 231 230 227 227 228 230 232 232 234 235 236 237 240 245 249 255 265 276 286 297 310 317 321
223 260 243 267 253 180 227 234 249 260 250 250 257 260 261 264 270 268 264 255 245 237 234 232 230 229 227 226 224 224 226 227 231 232 235 235 237 238 241 245 249 255 265 276 284 293 301 311 318
244 258 267 278 263 201 247 244 251 255 254 243 240 249 254 263 267 269 262 254 237 234 231 230 231 231 230 230 229 228 231 229 235 238 238 238 238 238 240 243 247 254 265 274 279 288 299 310 320
245 245 260 266 297 248 292 267 238 248 249 252 254 256 262 263 262 263 252 245 235 226 228 230 232 232 231 231 228 228 229 231 232 233 235 236 237 237 239 242 246 252 261 269 278 286 294 305 309
257 228 244 249 259 271 149 292 229 238 248 248 252 254 257 256 260 261 249 238 232 230 228 229 232 233 231 230 229 228 230 228 231 234 236 237 237 238 240 242 244 248 255 265 273 281 290 296 299
260 216 247 220 231 311 179 272 211 197 241 248 245 247 252 262 266 261 236 236 233 226 226 229 232 231 229 230 230 230 232 234 239 239 239 238 238 239 239 241 244 247 253 260 269 280 287 291 293
185 128 258 15 71 264 192 208 252 195 216 239 246 251 259 265 262 244 242 228 225 222 222 226 229 229 228 230 232 233 234 236 236 237 237 237 236 235 236 239 241 245 250 258 267 275 280 284 288
170 91 302 316 325 253 183 216 251 295 266 224 230 240 245 245 248 222 222 210 219 220 221 225 228 227 227 228 231 233 235 238 239 240 240 238 236 235 236 237 240 244 249 256 263 270 275 279 283
202 209 188 205 253 280 120 244 254 216 236 239 241 241 232 237 214 214 224 219 222 222 223 224 225 226 228 229 230 233 235 239 241 240 242 242 241 241 239 239 239 241 245 250 258 267 272 275 277
183 171 229 312 100 12 266 270 293 267 260 253 238 233 232 223 214 219 220 223 226 226 226 224 226 228 231 232 232 233 234 237 240 241 243 245 243 241 237 237 238 241 244 251 258 264 267 271 276
179 304 76 229 211 247 259 267 266 283 276 261 262 227 237 229 212 217 222 226 231 232 231 230 231 235 237 237 235 236 237 238 240 241 244 246 243 238 235 235 236 239 245 251 258 262 266 270 274
151 253 230 285 203 253 263 270 224 219 265 274 250 245 237 219 223 226 232 235 236 237 235 234 236 240 241 241 240 239 238 239 240 243 245 246 243 239 236 235 236 239 243 250 255 260 263 269 276
260 236 230 239 262 228 257 260 278 259 202 242 263 266 248 236 225 235 247 238 235 240 240 240 244 246 250 247 242 240 239 240 242 243 245 245 241 239 239 238 236 239 243 249 255 261 264 270 278